Showing default

COSMOS 2237, 22565

Orbit data source: Space-Track

COSMOS 2237, 22565 is a payload satellite owned by GRU (CIS) in LEO that was launched on Fri, 26 Mar 1993 UTC via a ZENIT-2 launch vehicle from the Tyuratam Missile And Space Complex (TTMTR). Payloads include a variety of satellites, spacecraft, and rockets equipped with specific instruments for various scientific and technological missions. These include communications satellites like Starlink; space stations such as the ISS; scientific satellites like the Hubble; Earth observation satellites from companies like Planet Labs, Umbra, and HawkEye 360; GPS; miniature CubeSats for education and research; and military/defense satellites.

Loading next visibility...
COSMOS 2237 details
Identifier
22565, 1993-016A
Orbit
LEO
Last TLE update21 hours ago
Origin
Flag of CISGRU (CIS)
ManufacturerYuzhnoe
MissionDefense Sigint
Bus & MotorTSELINA-2, Unknown motor
Mass3,250 kg wet, 3,250 kg dry
Launch date (UTC)
1993-03-26 (32 years ago)
Launch vehicle
ZENIT-2
Launch site
Tyuratam Missile And Space Complex (TTMTR)
Object type
Payload
Rocket body
Debris
Shape & HBRUnknown shape, 19 m
Radar Cross SectionLarge (>1 m²)

Expand to show TLE details & history

TLE from 21 hours ago
0 COSMOS 2237
1 22565U 93016A   24360.61505000 -.00000148  00000-0 -53535-4 0  9991
2 22565  70.8081  11.6646 0007214 326.9589  33.1079 14.12517664637574
Epoch: 2024-12-25T14:45Z
Definitive object data (Epoch: 2024-12-25T14:45:40.32Z)
Latitude-0.00003°
Longitude55.64033°
Altitude848.786 km
Speed7.431 km/s
True Right ascension00h 46m 39s
True Declination0° 00' 00"
Sunlit
Object was in daylight at TLE epoch
Visualization TLE readout
Latitude-4.63706°
Longitude-124.62097°
Altitude857.92 km
Speed7.421 km/s
Apparent Right ascension14h 58m 44s
Apparent Declination-55° 57' 31"
Sunlit
Object is in daylight
Visualization observer readout
Local Sidereal Time11:23:09
Azimuth151.905° SSE
Elevation-16.183°
Doppler factor1
Orbital elements
Apogee altitude853.929 km
Perigee altitude843.502 km
Semi-major axis7,226.852 km
Eccentricity0.0007214
Inclination70.8081°
RAAN11.6646°
Arg. of periapsis326.9589°
True anomaly33.15309°
Mean anomaly33.1079°
Eccentric anomaly33.13049°
Mean motion3.5328 °/min
BSTAR-0.000053535
Orbital period101.9 mins
Loading maneuver chart data...
Loading historical data...
Loading historical data...
Loading historical data...
Loading historical data...
Loading historical data...
Loading historical data...
Loading historical data...

COSMOS 2237 Visibility forecast

Observer location: undefined°, undefined

Span
Click to sort rows by Start time (UTC) header in descending order
Start Az.
Max El. time (UTC)
Max El. Az.
Max El.
End time (UTC)
End Az.
7 mins2024-12-26 13:27:42.630Z301.705° NW2024-12-26 13:31:42.630Z256.601° W17.38°2024-12-26 13:34:42.630Z222.595° SW
5 mins2024-12-27 00:53:42.630Z127.954° SE2024-12-27 00:55:42.630Z103.68° ESE17.036°2024-12-27 00:58:42.630Z67.312° ENE
9 mins2024-12-27 02:35:42.630Z220.414° SW2024-12-27 02:39:42.630Z295.375° NW41.015°2024-12-27 02:44:42.630Z15.066° NNE
9 mins2024-12-27 11:31:42.630Z349.943° N2024-12-27 11:35:42.630Z80.799° E40.508°2024-12-27 11:40:42.630Z143.087° SSE
|